Regional Weather Roundup
Issued by NWS Columbia, SC

Home | Current Version | Previous Version | Text Only | Print | Product List | Glossary On
Versions: 1 2 3 4 5 6 7 8 9 10 11 12 13 14 15 16 17 18 19 20 21 22 23 24 25 26 27 28 29 30 31 32 33 34 35 36 37 38 39 40 41 42 43 44 45 46 47 48 49 50
000
ASUS42 KCAE 232110
RWRCAE
REGIONAL WEATHER ROUNDUP
NATIONAL WEATHER SERVICE COLUMBIA SC
400 PM EST SUN NOV 23 2014

NOTE: "FAIR" INDICATES FEW OR NO CLOUDS BELOW 12,000 FEET WITH NO
SIGNIFICANT WEATHER AND/OR OBSTRUCTIONS TO VISIBILITY.

NOT ALL STATIONS ARE QUALITY CONTROLLED BY THE NATIONAL
WEATHER SERVICE. USE DATA WITH CAUTION...ESPECIALLY
DEWPOINT OBSERVATIONS.

SCZ001>056-GAZ040-063>065-077-232200-
...UPSTATE SOUTH CAROLINA...

CITY           SKY/WX    TMP DP  RH WIND       PRES   REMARKS
ANDERSON       LGT RAIN  48  47  96 NE12      29.83F FOG
LIBERTY        RAIN      48  49 100 MISG      29.83F
SPARTANBURG    LGT RAIN  48 N/A N/A N9        29.87F
CLEMSON        TSTM      51  47  86 MISG      29.84F FOG
GREENVILLE     RAIN      47  45  93 NE13G22   29.86F FOG
GREENWOOD      LGT RAIN  53  52  96 NE5       29.84F FOG
GREER          LGT RAIN  46  46 100 NE13      29.85F FOG
ROCK HILL      RAIN      53  52  96 E7        29.89F FOG
CHESTER        RAIN      55  54  94 E9        29.89F
LAURENS        LGT RAIN N/A N/A N/A E7        29.85F


...CENTRAL SOUTH CAROLINA...

CITY           SKY/WX    TMP DP  RH WIND       PRES   REMARKS
COLUMBIA APT   RAIN      63  61  93 E13       29.87F FOG
COLUMBIA OWENS LGT RAIN  63  61  93 SE5       29.88F FOG
DARLINGTON     CLOUDY    63  59  88 SE14G20   29.93F
FLORENCE       LGT RAIN  64  62  93 SE14G23   29.92F
MCENTIRE ANGB  LGT RAIN  63  63 100 SE12      29.88F FOG
ORANGEBURG     LGT RAIN  65  63  93 S8        29.89R FOG
SUMTER SHAW    LGT RAIN  63  63 100 SE15      29.87F FOG
NEWBERRY       DRIZZLE   55 N/A N/A E6        29.88F
AIKEN          LGT RAIN  63  63 100 SE10      29.86F
BARNWELL       CLOUDY    64  64 100 SE12      29.85F
CAMDEN         HVY RAIN  61  61 100 E10       29.91F VSB 3/4
LANCASTER      LGT RAIN  54  54 100 E10       29.90F
WINNSBORO      HVY RAIN  59  59 100 E7        29.88F


...EASTERN AND COASTAL SOUTH CAROLINA...

CITY           SKY/WX    TMP DP  RH WIND       PRES   REMARKS
MYRTLE BEACH   LGT RAIN  64  61  88 SE18      29.95F FOG
N MYRTLE BCH   LGT RAIN  64  62  93 E10       29.96F FOG
CONWAY         LGT RAIN  64 N/A N/A E5        29.96F
FLORENCE       LGT RAIN  64  62  93 SE14G23   29.92F
DARLINGTON     CLOUDY    63  59  88 SE14G20   29.93F
CHARLESTON APT LGT RAIN  67  65  93 SE15G23   29.91F FOG
MOUNT PLEASANT CLOUDY    66  66 100 E10G18    29.92F VSB 1
WALTERBORO     LGT RAIN  68 N/A N/A SE12      29.89F
BEAUFORT       CLOUDY    67  66  97 SE6       29.87F


...EASTERN GEORGIA...

CITY           SKY/WX    TMP DP  RH WIND       PRES   REMARKS
AUGUSTA BUSH F LGT RAIN  63  62  97 SE9       29.81F FOG
AUGUSTA DANIEL RAIN      62  61  96 SE10      29.82F FOG
THOMSON        CLOUDY    63  63 100 SE5       29.85S
WASHINGTON     RAIN      59 N/A N/A E5        29.80F
CLAXTON        CLOUDY    72  72 100 SE3       29.82F
SYLVANIA       CLOUDY    67  66  97 SE7       29.84F FOG
STATESBORO     CLOUDY    67  67 100 SE5       29.82F FOG
SAVANNAH       CLOUDY    71  67  87 E8        29.85F FOG


...SOUTHERN NORTH CAROLINA...

CITY           SKY/WX    TMP DP  RH WIND       PRES   REMARKS
CHARLOTTE      RAIN      53  51  93 E10       29.92F FOG
MONROE         LGT RAIN  53  51  93 VRB7      29.91F FOG
WADESBORO      LGT RAIN  55  54  96 NE5       29.95F
ROCKINGHAM     RAIN      56  55  98 E8        29.95F
RUTHERFORDTON  RAIN      46  45  99 NW5       29.93S
ASHEVILLE      RAIN      47  45  93 CALM      29.87F FOG

$$



USA.gov is the U.S. government's official web portal to all federal, state and local government web resources and services.